Meteo Giornale » Osservazioni meteo Gran Bretagna » Birmingham-AP

ore: 04:50 - Osservazioni Meteo Birmingham-AP
Lat. 52° 27' N Lon. 1° 44' W Alt. 99 metri s.l.m.

foschia Europe/London

9 °C

Foschia

Temp. 24 Ore

4 °C

13 °C

Nord

3.7 Km/h

Dew point 9 °C

Umidità 100 %

Visibilità  4 Km

Il sole sorge alle ore 07:47

Il sole tramonta alle ore 17:55

Data e Ora Cielo e Fenomeni T °C DP °C Um. % Pres. hPa Vis. km Vento km/h
Oggi h: 04:50 foschia Foschia 9 9 100 1003 4 N 3.7
Oggi h: 04:20 foschia Foschia 9 9 100 1004 4 N 0
Oggi h: 03:50 sereno Sereno 9 9 100 1004 6 SE 7.4
Oggi h: 03:20 sereno Sereno 9 9 100 1005 7 N 5.5
Oggi h: 02:50 foschia Foschia 10 10 100 1005 5 N 1.8
Oggi h: 02:20 sereno Sereno 10 10 100 1005 7 N 5.5
Oggi h: 01:50 foschia Foschia 10 10 100 1005 5 N 3.7
Oggi h: 00:50 foschia Foschia 10 10 100 1005 5 N 5.5
Oggi h: 00:20 foschia Foschia 10 10 100 1005 4 N 5.5
Ieri h: 23:50 coperto_pioggia Pioggia Debole Foschia 10 10 100 1006 4 S/SE 7.4
Ieri h: 23:20 coperto_pioggia Pioggia Debole 10 10 100 1006 6 N 3.7
Ieri h: 22:50 coperto_pioggia Pioggia Debole 10 10 100 1007 7 SE 9.3
Ieri h: 22:20 coperto_pioggia Pioggia Debole 10 10 100 1007 6 N 5.5
Ieri h: 21:50 coperto_pioggia Pioggia Debole 11 10 93 1007 6 S 9.3
Ieri h: 21:20 coperto_pioggia Pioggia Debole 11 10 93 1007 4 S/SE 7.4
Ieri h: 20:50 coperto_pioggia Pioggia Debole 11 10 93 1007 3 N 3.7
Ieri h: 20:20 coperto_pioggia Pioggia Debole 11 10 93 1007 4 N 5.5
Ieri h: 19:50 foschia Foschia 11 10 93 1008 4 SE 7.4
Ieri h: 19:20 coperto_pioggia Pioggia Debole 11 10 93 1008 4 N 5.5
Ieri h: 18:50 coperto_pioggia Pioggia Debole 11 10 93 1009 7 N 3.7
Ieri h: 18:20 coperto_pioggia Pioggia Debole 12 10 87 1009 7 N 5.5
Ieri h: 17:50 sereno Sereno 12 10 87 1009 9 S/SE 9.3
Ieri h: 17:20 poco_nuvoloso Poco Nuvoloso 12 10 87 1009 10 S 7.4
Ieri h: 16:50 sereno Sereno 12 10 87 1010 7 S/SE 11.1
Ieri h: 16:20 sereno Sereno 12 9 81 1010 9 S/SE 9.3
Ieri h: 15:50 poco_nuvoloso Poco Nuvoloso 13 9 76 1010 10 S 9.3
Ieri h: 15:20 poco_nuvoloso Poco Nuvoloso 13 9 76 1011 10 S/SE 16.7
Ieri h: 14:50 poco_nuvoloso Poco Nuvoloso 13 10 81 1011 10 S/SE 11.1
Ieri h: 14:20 poco_nuvoloso Poco Nuvoloso 12 11 93 1012 10 S/SE 13
Ieri h: 13:50 poco_nuvoloso Poco Nuvoloso 11 10 93 1012 10 S/SE 9.3
Ieri h: 13:20 molto_nuvoloso Molto Nuvoloso 10 10 100 1013 6 SE 9.3
Ieri h: 12:50 nebbia NebbiaParziale 9 9 100 1013 5 SE 11.1
Ieri h: 12:20 molto_nuvoloso Molto Nuvoloso 9 9 100 1014 5 SE 13
Ieri h: 11:50 nebbia Nebbia 8 8 100 1014 0.45 SE 9.3
Ieri h: 11:20 nebbia Nebbia 7 7 100 1014 0.35 SE 9.3
Ieri h: 10:50 nebbia Nebbia 7 7 100 1015 0.35 N 3.7
Ieri h: 10:20 nebbia Nebbia 6 6 100 1015 0.1 N 5.5
Ieri h: 09:50 nebbia Nebbia 6 6 100 1016 0.1 SE 7.4
Ieri h: 09:20 nebbia Nebbia 6 6 100 1016 0.1 SE 9.3
Ieri h: 08:50 nebbia Nebbia 5 5 100 1016 0.1 SE 7.4
Ieri h: 08:20 nebbia Nebbia 5 5 100 1016 0.1 S/SE 7.4
Ieri h: 07:50 nebbia Nebbia 5 5 100 1016 0.1 N 0
Ieri h: 07:20 nebbia Nebbia 4 4 100 1016 0.1 S/SE 7.4
Ieri h: 06:50 nebbia Nebbia 5 5 100 1016 0.1 S/SE 7.4